CAPE
21 0 0 0 0 0 0 0 0 0 0 0 0 0 0 0 0 0 0 0 0 0 0 0 0 0 0 0 0 0 0 0 0 0 0 0 24 94 160 208 317 310 301 209
10 0 0 0 0 0 0 0 0 0 0 0 0 0 0 0 0 0 0 0 0 0 0 0 0 0 0 0 0 0 0 0 0 0 1 42 102 151 169 148 154 196 229 207
6 0 0 0 0 0 6 2 1 0 0 0 0 0 0 0 0 0 0 0 0 0 0 0 0 0 0 0 0 0 0 0 0 0 1 37 103 140 164 139 117 138 97 88
7 5 1 0 3 4 0 0 0 0 0 0 0 0 0 0 0 0 0 0 0 0 0 0 0 0 0 0 0 0 0 0 0 0 0 0 0 0 0 0 0 0 0 1
0 0 0 0 0 0 4 0 0 5 7 3 1 0 0 0 0 0 0 0 0 0 0 0 0 0 0 0 0 0 0 0 0 0 0 0 0 0 0 0 0 0 0 0
1 0 0 6 4 11 7 5 1 4 2 0 0 0 0 0 0 0 0 0 0 0 0 0 0 0 0 0 0 0 0 0 0 0 0 0 0 0 0 0 0 0 0 0
10 0 1 1 8 18 15 10 0 0 1 0 0 0 0 0 0 0 0 0 0 0 0 0 0 0 0 0 0 0 0 0 0 0 0 0 0 0 0 0 0 0 0 0
0 0 0 2 0 0 1 0 0 0 0 0 0 0 0 0 0 0 0 0 0 0 0 0 0 0 0 0 0 0 0 0 0 0 0 0 0 0 0 0 0 0 0 0
0 0 0 0 0 0 12 15 1 0 0 0 0 0 0 0 0 0 0 0 0 0 0 0 0 0 0 0 0 0 0 0 0 0 0 0 0 0 0 0 0 0 0 0
0 0 0 0 2 2 4 3 12 11 1 0 0 0 0 0 0 0 0 0 0 0 0 0 0 0 0 0 0 0 0 0 0 0 0 0 0 0 0 0 0 0 0 0
0 2 0 3 12 1 1 20 18 7 4 0 0 0 0 0 0 0 0 0 0 0 0 0 0 0 0 0 0 0 0 0 0 0 0 0 0 0 0 0 0 0 0 0
0 17 7 0 0 19 26 33 30 9 0 0 0 0 0 0 0 0 0 0 0 0 0 0 0 0 0 0 0 0 0 0 0 0 0 0 0 0 0 0 0 0 0 0
10 9 2 5 0 1 10 5 15 15 16 0 12 0 0 0 0 0 0 0 0 0 0 0 0 0 0 0 0 0 0 0 0 0 0 0 0 0 0 0 0 0 0 0
38 2 0 0 0 6 2 0 0 5 0 0 0 0 0 0 0 0 0 0 0 0 0 0 0 0 0 0 0 0 0 0 0 0 0 0 0 0 0 0 0 0 0 0
16 0 0 0 8 19 12 8 13 12 0 7 0 0 0 0 0 0 0 0 0 0 0 0 0 0 0 0 0 0 0 0 0 0 0 0 0 0 0 0 0 0 0 0
42 0 0 0 0 3 0 0 11 7 1 2 0 0 0 0 0 0 0 0 0 0 0 0 0 0 0 0 0 0 0 0 0 0 0 0 0 0 0 0 0 0 0 0
0 0 0 0 1 1 1 0 0 0 0 0 0 0 0 0 0 0 0 0 0 0 0 0 0 0 0 0 0 0 0 0 0 0 0 0 0 0 0 0 0 0 0 0
0 2 2 0 1 0 0 0 0 0 0 0 0 0 0 0 0 0 0 0 0 0 0 0 0 0 0 0 0 0 0 0 0 0 0 0 0 0 0 0 0 0 0 0
0 0 3 0 0 0 0 0 0 1 0 0 0 0 0 0 0 0 0 0 0 0 0 0 0 0 0 0 0 0 0 0 0 0 0 0 0 0 0 0 0 0 0 0
0 0 19 2 0 0 0 0 0 0 0 0 0 0 0 0 0 0 0 0 0 0 0 0 0 0 0 0 0 0 0 0 0 0 0 0 0 0 0 0 0 0 0 0
0 2 0 0 2 0 0 0 0 1 0 0 0 0 0 0 0 0 0 0 0 0 0 0 0 0 0 0 0 0 0 0 0 0 0 0 0 0 0 0 0 0 0 0
0 0 0 1 3 0 0 0 0 0 0 0 0 0 0 0 0 0 0 0 0 0 1 0 0 0 0 0 0 0 0 0 0 0 0 0 0 0 0 0 0 0 0 0
0 0 0 0 0 0 0 0 0 0 0 0 0 0 0 0 0 0 0 1 2 0 0 0 0 0 0 0 0 0 0 0 0 0 0 0 0 0 0 0 0 0 0 0
0 0 0 0 0 0 0 0 0 0 0 0 0 0 0 0 0 0 0 0 0 0 0 0 0 0 0 0 0 0 0 0 0 0 0 0 0 0 0 0 0 0 0 0
0 0 0 0 0 0 0 0 0 0 0 0 0 0 0 0 0 0 0 0 0 0 0 0 0 0 0 0 0 0 0 0 0 0 0 0 0 0 0 0 0 0 0 1
0 0 0 0 0 0 0 0 0 0 0 0 0 0 0 0 0 0 0 0 0 0 0 0 0 0 0 0 0 0 0 0 0 0 0 0 0 0 0 0 0 0 0 0
CIN
0 0 0 0 0 0 0 0 0 0 0 0 0 0 0 0 0 0 0 0 0 0 0 0 0 0 0 0 0 0 0 0 0 0 0 0 -206 -149 -122 -122 -78 -66 -52 -53
0 0 0 0 0 0 0 0 0 0 0 0 0 0 0 0 0 0 0 0 0 0 0 0 0 0 0 0 0 0 0 0 0 0 0 -137 -106 -122 -101 -119 -101 -83 -63 -58
0 -1 0 0 0 0 0 0 0 0 0 0 0 0 0 0 0 0 0 0 0 0 0 0 0 0 0 0 0 0 0 0 0 0 0 -128 -86 -64 -76 -94 -106 -92 -99 -83
-1 0 -6 0 0 0 0 0 0 0 0 0 0 0 0 0 0 0 0 0 0 0 0 0 0 0 0 0 0 0 0 0 0 0 0 0 0 0 0 0 0 0 0 -22
0 -1 0 0 0 0 0 -1 -1 0 0 -3 0 0 0 0 0 0 0 0 0 0 0 0 0 0 0 0 0 0 0 0 0 0 0 0 0 0 0 0 0 0 0 0
-1 0 0 -1 -7 -8 -17 -5 -2 -5 0 0 0 0 0 0 0 0 0 0 0 0 0 0 0 0 0 0 0 0 0 0 0 0 0 0 0 0 0 0 0 0 0 0
0 0 -14 -16 -2 -10 -2 -1 0 0 0 0 0 0 0 0 0 0 0 0 0 0 0 0 0 0 0 0 0 0 0 0 0 0 0 0 0 0 0 0 0 0 0 0
0 0 0 -6 0 0 0 -1 0 0 0 0 0 0 0 0 0 0 0 0 0 0 0 0 0 0 0 0 0 0 0 0 0 0 0 0 0 0 0 0 0 0 0 0
0 0 0 0 0 0 0 0 -1 0 0 0 0 0 0 0 0 0 0 0 0 0 0 0 0 0 0 0 0 0 0 0 0 0 0 0 0 0 0 0 0 0 0 0
0 0 0 0 -4 -4 -3 -3 -1 -3 -1 -1 0 0 0 0 0 0 0 0 0 0 0 0 0 0 0 0 0 0 0 0 0 0 0 0 0 0 0 0 0 0 0 0
0 -3 0 -5 0 0 -2 0 -1 -3 -3 0 0 0 0 0 0 0 0 0 0 0 0 0 0 0 0 0 0 0 0 0 0 0 0 0 0 0 0 0 0 0 0 0
-15 0 -1 0 0 -19 -3 -4 -13 -7 0 0 0 0 0 0 0 0 0 0 0 0 0 0 0 0 0 0 0 0 0 0 0 0 0 0 0 0 0 0 0 0 0 0
-47 -1 0 -3 -5 -7 -1 -4 -3 -4 -5 0 -1 0 0 0 0 0 0 0 0 0 0 0 0 0 0 0 0 0 0 0 0 0 0 0 0 0 0 0 0 0 0 0
-20 -13 0 0 0 -17 -3 0 -3 -9 0 -1 0 0 0 0 0 0 0 0 0 0 0 0 0 0 0 0 0 0 0 0 0 0 0 0 0 0 0 0 0 0 0 0
-16 0 0 0 -6 -9 -11 -10 -12 -11 0 -2 0 0 0 0 0 0 0 0 0 0 0 0 0 0 0 0 0 0 0 0 0 0 0 0 0 0 0 0 0 0 0 0
-30 0 0 0 -2 -5 0 0 -1 -2 -4 -4 -2 0 0 0 0 0 0 0 0 0 0 0 0 0 0 0 0 0 0 0 0 0 0 0 0 0 0 0 0 0 0 0
0 -3 0 0 -6 -4 0 0 0 0 0 0 0 0 0 0 0 0 0 0 0 0 0 0 0 0 0 0 0 0 0 0 0 0 0 0 0 0 0 0 0 0 0 0
0 -11 -4 0 -7 0 0 0 0 -9 0 0 0 0 0 0 0 0 0 0 0 0 0 0 0 0 0 0 0 0 0 0 0 0 0 0 0 0 0 0 0 0 0 0
0 0 -10 0 0 0 0 0 0 -1 0 0 0 0 0 0 0 0 0 0 0 0 0 0 0 0 0 0 0 0 0 0 0 0 0 0 0 0 0 0 0 0 0 0
0 0 -17 -18 -4 0 0 0 0 -3 0 0 0 0 0 0 0 0 0 0 0 0 0 0 0 0 0 0 0 0 0 0 0 0 0 0 0 0 0 0 0 0 0 0
0 0 0 0 0 0 0 0 0 -4 0 0 0 0 0 0 0 0 0 0 0 0 0 0 0 0 0 0 0 0 0 0 0 0 0 0 0 0 0 0 0 0 -1 0
-4 0 -2 -1 -3 0 0 0 0 0 0 0 0 0 0 0 0 0 0 0 0 0 0 0 0 0 0 0 0 0 0 0 0 0 0 0 0 0 0 0 0 0 -1 0
0 -1 0 0 0 0 0 0 0 0 0 0 0 0 0 0 0 0 0 0 0 0 0 0 0 0 0 0 0 0 0 0 0 0 0 0 0 0 0 0 0 0 0 0
0 0 0 -1 0 0 0 0 0 0 0 0 0 0 0 0 0 0 0 0 0 0 0 0 0 0 0 0 0 0 0 0 0 0 0 0 0 0 0 0 0 0 0 0
0 0 0 0 0 0 0 0 0 0 0 0 0 0 0 0 0 0 0 0 0 0 0 0 0 0 0 0 0 0 0 0 0 0 0 0 0 0 0 0 0 0 0 -1
0 0 0 0 0 0 0 0 0 0 0 0 0 0 0 0 0 0 0 0 0 0 0 0 0 0 0 0 0 0 0 0 0 0 0 0 0 0 0 0 0 0 0 0
Wind_Speed
22 26 29 25 24 23 22 24 27 27 25 33 34 37 38 39 39 37 34 33 33 30 30 26 27 28 28 27 29 29 28 25 21 19 19 19 20 19 20 21 22 23 23 22
26 32 26 23 23 25 27 28 29 29 29 33 39 46 45 41 37 35 34 31 29 28 27 27 26 26 26 26 27 27 26 25 22 20 19 20 20 20 21 22 23 24 25 25
29 24 24 24 25 27 30 33 32 34 32 35 41 46 32 27 22 21 25 25 27 28 26 24 24 24 24 25 25 25 24 23 23 21 19 19 19 20 22 24 25 26 27 27
30 30 25 26 28 26 33 27 29 33 35 38 29 46 36 29 34 24 23 22 22 21 20 20 21 22 23 23 23 23 22 22 22 21 19 20 20 21 23 25 25 26 27 27
28 26 30 30 27 24 29 21 25 30 35 38 37 38 35 27 28 27 20 20 20 22 22 22 22 22 21 22 21 21 21 21 21 20 20 19 20 21 22 24 25 25 25 26
27 22 23 26 24 21 18 23 26 29 33 44 37 33 37 30 26 21 20 20 22 23 21 20 20 18 19 19 20 20 20 20 21 21 21 20 21 22 23 24 24 25 26 27
30 31 25 21 24 21 19 23 34 37 37 43 32 33 41 28 25 19 24 22 22 21 20 18 18 17 18 18 19 18 19 19 20 20 21 22 22 22 23 24 25 26 27 28
34 37 27 24 26 26 25 25 30 39 38 38 29 39 35 26 20 23 25 22 21 19 17 16 16 15 16 17 18 18 19 19 20 20 22 23 23 23 23 25 26 27 28 29
32 36 24 23 24 22 25 30 25 34 34 42 38 37 36 25 22 22 22 21 17 16 15 15 14 15 15 16 17 18 18 19 20 21 22 23 24 25 25 26 27 29 30 31
27 34 25 22 21 23 25 19 28 28 38 42 38 38 35 25 22 21 24 18 17 16 14 15 15 14 15 15 17 18 18 19 21 22 22 23 25 26 27 28 29 31 32 33
23 27 26 22 25 25 24 27 25 26 31 39 43 39 25 26 24 22 19 17 17 15 16 16 15 14 14 15 16 17 18 20 21 22 23 24 26 27 28 28 30 32 33 34
24 28 36 36 27 27 28 27 27 33 34 36 42 53 27 28 26 21 21 20 17 16 16 14 14 15 14 15 16 17 19 20 22 22 23 25 27 28 30 32 32 32 33 33
20 29 38 34 30 29 32 30 32 33 35 43 41 43 22 23 27 27 25 19 18 17 15 14 15 15 16 16 16 18 20 22 23 24 25 27 29 30 31 33 34 33 33 33
17 29 35 42 33 26 31 32 32 34 40 42 43 49 39 35 33 30 27 23 20 18 16 15 15 16 16 16 16 19 21 23 24 26 27 28 31 31 30 31 31 32 32 32
26 39 36 38 38 38 39 37 33 36 39 43 45 46 43 39 40 36 30 25 22 20 17 16 16 15 16 17 19 20 23 24 25 27 28 28 28 29 29 30 31 31 31 32
27 40 37 46 39 41 47 46 41 41 41 43 46 48 41 44 40 35 28 24 22 18 17 16 16 16 16 18 20 23 24 25 26 26 28 28 28 28 29 30 30 30 31 32
33 37 38 53 39 43 49 49 45 46 43 42 47 46 45 45 40 36 33 27 24 21 18 17 16 16 17 18 20 23 23 23 25 27 26 27 28 28 29 29 30 31 32 33
35 36 37 50 40 55 43 39 36 37 37 36 40 44 42 40 39 35 29 26 23 20 18 16 15 16 17 18 21 21 22 24 25 25 27 28 27 28 29 30 31 32 33 35
34 37 42 49 51 53 62 44 40 39 51 37 40 40 38 36 37 38 28 23 21 18 16 15 14 14 15 17 19 20 22 24 23 24 26 28 27 28 30 31 32 34 35 36
37 39 45 49 54 60 59 41 31 30 60 36 34 35 36 33 38 35 21 20 17 16 13 13 14 15 16 17 17 19 21 20 22 24 26 26 27 28 30 32 33 34 36 37
37 38 46 51 54 54 50 36 30 48 59 36 39 37 38 30 31 27 15 15 13 12 11 12 12 15 14 16 15 17 18 21 23 24 25 26 27 29 30 32 33 35 36 38
39 39 43 44 51 60 34 36 41 43 41 37 35 37 36 27 25 21 18 16 13 11 11 11 12 15 14 15 16 16 18 21 23 24 25 26 28 29 30 32 34 36 38 40
42 37 39 37 40 34 34 35 31 31 32 32 33 32 25 21 19 17 17 13 10 10 10 9 11 12 14 14 15 16 19 21 22 23 25 27 28 29 31 33 36 37 39 41
31 28 35 38 41 39 36 31 30 27 30 35 33 30 21 19 15 12 11 10 8 7 7 7 9 10 12 14 15 17 19 21 22 23 25 27 29 31 33 33 35 38 40 42
29 24 30 34 35 34 37 35 40 35 30 27 29 21 21 11 12 10 7 7 6 5 6 6 7 9 10 13 15 17 19 20 21 23 26 28 30 32 34 35 36 37 37 39
31 34 32 33 41 34 42 35 20 20 26 20 13 18 17 8 3 4 4 3 4 3 4 5 7 8 11 13 15 18 19 21 23 24 27 29 31 32 34 35 36 34 35 35
Wind_Direction
266 264 263 266 267 282 282 283 285 290 295 294 293 293 294 294 295 297 299 300 302 304 308 313 314 315 315 317 316 315 314 315 314 313 311 308 307 308 305 305 306 306 307 307
263 262 269 272 273 274 279 283 286 293 295 296 294 291 293 294 295 297 299 301 305 309 311 314 316 318 320 320 320 322 323 321 319 315 315 314 314 313 311 312 311 309 308 308
258 272 269 268 274 276 278 281 284 287 296 296 296 292 299 305 310 311 309 309 310 310 315 319 323 326 327 326 325 326 330 331 328 323 321 319 319 317 317 318 316 316 312 311
265 267 275 271 273 277 280 286 286 288 291 290 302 289 294 297 299 307 313 317 320 324 328 329 329 330 331 331 333 334 337 337 337 336 333 328 324 319 320 319 321 319 320 319
268 273 265 270 274 276 283 291 290 291 290 291 289 291 295 298 297 301 310 318 320 323 324 325 326 326 330 335 339 342 345 345 347 347 343 339 336 333 329 327 325 326 326 327
268 281 279 274 280 276 289 289 292 293 291 283 283 285 291 293 295 302 310 314 318 319 322 324 330 333 335 340 344 347 349 351 352 352 351 347 342 337 333 331 330 329 329 328
268 271 278 281 275 281 276 281 284 285 282 283 293 282 284 297 301 300 309 316 320 321 322 325 329 334 337 341 345 349 351 352 354 355 353 349 344 341 338 335 334 332 331 330
263 269 267 269 270 277 267 271 279 282 283 287 292 284 293 299 288 298 310 317 319 321 323 325 332 337 342 345 346 348 350 350 351 351 348 346 344 340 337 334 333 332 330 329
267 269 281 281 274 267 275 267 276 285 287 286 286 290 295 297 300 299 303 314 317 325 327 328 334 337 339 342 345 347 347 348 348 346 343 341 339 336 332 331 330 328 328 327
272 273 278 274 276 272 272 278 276 276 281 282 287 290 289 300 296 297 304 308 313 316 320 324 326 332 337 341 343 344 344 343 341 341 338 337 336 336 333 330 329 328 327 327
266 271 275 276 266 266 270 272 277 280 278 283 287 290 306 299 300 302 305 311 310 308 310 315 321 329 331 337 341 342 342 340 340 340 339 337 335 335 334 332 329 328 328 328
258 275 269 270 280 274 267 269 267 273 277 281 284 282 299 304 308 307 307 308 306 307 308 311 317 320 325 328 333 336 335 336 336 336 333 332 334 332 329 327 328 331 331 332
261 270 270 275 278 275 273 270 271 274 279 275 279 283 312 308 303 304 304 303 305 304 302 306 308 311 315 322 329 331 331 331 333 333 331 327 328 326 329 327 328 329 330 331
271 271 268 269 279 284 275 273 269 269 272 278 273 284 283 293 298 300 300 299 296 296 293 297 300 304 310 317 323 325 327 329 330 329 326 325 323 326 332 332 332 332 333 334
275 271 274 275 277 278 278 279 275 270 271 272 282 282 287 292 294 294 293 293 289 283 280 284 291 298 305 311 315 318 322 324 327 326 327 327 329 329 333 332 330 336 337 336
275 273 278 275 280 279 277 275 275 275 276 278 282 279 290 293 294 295 291 287 281 276 273 277 286 292 299 307 311 313 315 321 324 325 327 331 333 332 337 333 336 337 336 337
273 277 278 274 285 282 274 275 274 275 274 276 277 281 292 291 291 288 283 276 274 270 268 269 279 288 295 302 307 310 317 324 325 325 328 331 334 335 336 338 338 337 335 336
273 275 278 276 282 273 279 288 285 281 279 277 280 285 287 289 295 295 280 271 270 264 263 266 277 288 295 302 305 312 320 321 321 325 325 330 335 334 335 334 334 335 336 335
272 274 276 274 274 279 276 278 285 287 283 286 286 288 289 289 293 291 285 276 269 261 263 268 279 288 297 302 309 314 317 320 325 325 322 329 336 334 334 333 332 333 332 332
270 269 269 272 274 274 279 287 287 290 279 286 287 289 292 290 285 286 284 277 269 265 265 267 279 287 295 300 312 316 320 326 325 323 326 334 333 333 333 333 333 333 333 332
275 272 268 269 271 276 280 284 289 279 283 295 292 288 292 282 280 293 286 281 276 271 270 279 284 286 301 305 319 323 326 323 325 330 330 332 333 334 334 333 334 333 334 333
272 275 272 274 272 273 285 286 276 283 290 292 294 291 288 287 285 282 277 274 271 269 274 281 280 289 307 313 317 320 321 326 328 329 331 333 334 335 335 335 335 335 335 334
273 272 274 274 278 286 288 287 291 291 289 293 295 297 289 282 282 278 273 272 269 269 275 285 291 304 313 320 324 323 322 327 330 333 334 335 336 337 337 336 336 335 336 335
285 287 281 281 278 279 283 287 289 291 292 291 293 290 280 279 274 277 277 278 266 268 275 289 301 310 318 325 328 328 328 330 333 334 336 337 337 337 338 338 337 335 335 335
285 294 287 283 284 287 282 280 272 283 292 296 294 282 270 269 273 269 261 266 272 280 292 305 314 322 328 330 331 332 334 336 336 338 338 337 337 336 336 337 337 337 338 338
278 284 289 287 272 252 249 271 294 294 295 291 272 268 273 273 254 233 250 255 274 300 320 326 331 335 333 333 335 336 337 338 338 337 337 336 336 336 337 337 338 340 341 342